This demonstration page uses our WeatherBlox Daily Observations layout. Learn more.

41.55636, -103.73856

Hourly Observations for January 10, 2019

Temp ( °F °C ) Dew Point ( °F °C ) Humidity (%) Winds ( mph kmh ) Pressure ( in mb ) Visibility ( mi km ) Precip ( " mm )
12:56 am 00:56 Mostly Cloudy 37 2.6 15 -9.5 41 41 SSW 14 22 30.21 1023 10 16.0934 N/A
1:56 am 01:56 Partly Cloudy 35 1.6 15 -9.3 45 45 SSW 13 20 30.23 1024 10 16.0934 N/A
2:56 am 02:56 Clear 31 -0.3 16 -9.1 52 52 S 10 17 30.22 1023 10 16.0934 N/A
3:56 am 03:56 Clear 30 -1.2 16 -9 56 56 S 10 17 30.2 1023 10 16.0934 N/A
4:56 am 04:56 Clear 31 -0.5 15 -9.4 51 51 S 9 15 30.16 1022 10 16.0934 N/A
5:56 am 05:56 Clear 31 -0.3 16 -9 52 52 SW 10 17 30.15 1021 10 16.0934 N/A
6:56 am 06:56 Mostly Cloudy 34 1.2 18 -7.6 52 52 W 6 9 30.11 1020 10 16.0934 N/A
7:56 am 07:56 Mostly Cloudy 32 0.1 20 -6.7 61 61 WSW 8 13 30.12 1020 10 16.0934 N/A
8:56 am 08:56 Mostly Cloudy 36 2.2 20 -6.4 53 53 NW 5 7 30.12 1020 10 16.0934 N/A
9:56 am 09:56 Partly Cloudy 36 2 21 -6 56 56 NW 7 11 30.11 1020 10 16.0934 N/A
10:58 am 10:58 Mostly Cloudy 38 3.4 21 -5.9 51 51 WNW 13 20 30.08 1019 10 16.0934 N/A
11:58 am 11:58 Mostly Cloudy 37 2.8 21 -6.1 52 52 NW 14 22 30.09 1019 10 16.0934 N/A
12:58 pm 12:58 Mostly Cloudy 40 4.6 21 -6.2 46 46 NW 16 26 30.05 1018 10 16.0934 N/A
1:58 pm 13:58 Mostly Cloudy 42 5.4 20 -6.4 43 43 W 18 30 30.05 1018 10 16.0934 N/A
2:58 pm 14:58 Sunny 41 4.8 21 -6 46 46 NW 15 24 30.07 1018 10 16.0934 N/A
3:56 pm 15:56 Sunny 45 7.1 22 -5.4 41 41 W 10 17 30.12 1020 10 16.0934 N/A
4:56 pm 16:56 Mostly Sunny 49 9.2 22 -5.8 34 34 W 15 24 30.13 1020 10 16.0934 N/A
5:56 pm 17:56 Sunny 52 10.9 21 -6.2 30 30 WNW 16 26 30.08 1019 10 16.0934 N/A
6:56 pm 18:56 Sunny 56 13.2 21 -6 26 26 NNW 17 28 30.01 1016 10 16.0934 N/A
7:56 pm 19:56 Sunny 55 12.9 20 -6.7 25 25 NNW 14 22 30 1016 10 16.0934 N/A
8:56 pm 20:56 Sunny 56 13.2 20 -6.4 25 25 N 17 28 29.97 1015 10 16.0934 N/A
9:56 pm 21:56 Sunny 51 10.5 20 -6.4 30 30 NNW 10 17 30 1016 10 16.0934 N/A
10:58 pm 22:58 Mostly Sunny 48 8.7 21 -6 35 35 N 10 17 30.01 1016 10 16.0934 N/A
11:58 pm 23:58 Clear 42 5.8 22 -5.8 43 43 N 7 11 30.04 1017 10 16.0934 N/A

Powered by AerisWeather